Location: Austin
(30.3000°N, 97.7500°W)
Time: 03:50:59
(UTC-05:00)

Cosmos 1437 Rocket - Pass Details

Date: 18 March 2023
Orbit: 493 x 553 km, 81.2° (Epoch: 01 April)

Event Time Altitude Azimuth Distance (km) Brightness Sun altitude
Rises 20:13:12 0° 170° (S) 2,698 6.2 -7.7°
Reaches altitude 10° 20:15:26 10° 162° (SSE) 1,815 5.2 -8.2°
Maximum altitude 20:19:10 38° 93° (E) 853 3.3 -9.0°
Drops below altitude 10° 20:22:56 10° 25° (NNE) 1,837 5.3 -9.8°
Sets 20:25:12 0° 18° (NNE) 2,735 6.2 -10.3°
